Tracking 22458 objects as of 2-Mar-2021
HD Live streaming from Space Station
objects crossing your sky now

COSMOS 2491 DEB

Track COSMOS 2491 DEB now!
10-day predictions


NORAD ID: 44991
Int'l Code: 2013-076M
Perigee: 1,383.8 km
Apogee: 1,493.7 km
Inclination: 82.4 °
Period: 114.5 minutes
Semi major axis: 7809 km
RCS: Unknown
Launch date: December 25, 2013
Source: Commonwealth of Independent States (former USSR) (CIS)
Launch site: PLESETSK MISSILE AND SPACE COMPLEX (PKMTR)

Note: This is SATELLITE DEBRIS
aabbcc
Your satellite tracking list
Your tracking list is empty




NASA's NSSDC Master Catalog

Two Line Element Set (TLE):
1 44991U 13076M   20028.68392871 +.00000010 +00000-0 +00000-0 0  9991
2 44991 082.4030 182.2035 0070360 032.6286 327.6468 12.57912464003011
Source of the keplerian elements: AFSPC